Location: Doughton Park
(36.4224°N, 81.1835°W)
Time: 10:28:50
(UTC-05:00)

ISS - All Passes

Search period start: 16 January 2018 00:00
Search period end: 26 January 2018 00:00
Orbit: 401 x 407 km, 51.6° (Epoch: 17 January)

Date Brightness Start Highest point End Pass type
(mag) Time Alt. Az. Time Alt. Az. Time Alt. Az.
16 Jan - 04:42:27 10° NNW 04:44:51 18° NNE 04:47:14 10° ENE visible
16 Jan - 06:18:19 10° WNW 06:21:30 49° SW 06:24:41 10° SSE visible
16 Jan - 21:21:01 10° S 21:23:08 16° SE 21:25:16 10° E night (unlit)
16 Jan - 22:56:16 10° WSW 22:59:21 40° NW 23:02:27 10° NE night (unlit)
17 Jan - 03:50:45 10° N 03:52:13 12° NNE 03:53:43 10° NE night (unlit)
17 Jan - 05:25:54 10° NW 05:29:11 75° NE 05:32:27 10° SE visible
17 Jan - 22:03:42 10° SW 22:06:57 84° NW 22:10:13 10° NE night (unlit)
17 Jan - 23:42:14 10° NW 23:43:50 13° NNW 23:45:28 10° N night (unlit)
18 Jan - 04:33:40 10° NW 04:36:45 36° NE 04:39:49 10° ESE visible
18 Jan - 06:10:40 10° W 06:13:01 18° SW 06:15:20 10° S visible
18 Jan - 21:11:30 10° SSW 21:14:36 43° SE 21:17:43 10° ENE night (unlit)
18 Jan - 22:48:45 10° W 22:51:13 20° NNW 22:53:41 10° NNE night (unlit)
19 Jan - 03:41:36 10° NNW 03:44:12 21° NNE 03:46:49 10° E night (unlit)
19 Jan - 05:17:42 10° WNW 05:20:46 37° SW 05:23:49 10° SSE visible
19 Jan - 20:19:50 10° S 20:22:20 21° SE 20:24:52 10° E night (unlit)
19 Jan - 21:55:41 10° W 21:58:39 32° NW 22:01:38 10° NNE night (unlit)
20 Jan - 02:49:45 10° N 02:51:35 14° NNE 02:53:25 10° ENE night (unlit)
20 Jan - 04:25:09 10° NW 04:28:25 84° SW 04:31:42 10° SE night (unlit)
20 Jan - 21:02:57 10° WSW 21:06:10 64° NW 21:09:25 10° NE night (unlit)
20 Jan - 22:41:59 10° NW 22:43:10 11° NNW 22:44:22 10° N night (unlit)
21 Jan - 03:32:49 10° NW 03:35:59 45° NE 03:39:09 10° ESE night (unlit)
21 Jan - 05:10:18 10° W 05:12:09 14° SW 05:14:00 10° SSW night (unlit)
21 Jan - 20:10:35 10° SW 20:13:46 57° SE 20:16:58 10° ENE visible
21 Jan - 21:48:15 10° WNW 21:50:28 17° NNW 21:52:43 10° NNE night (unlit)
22 Jan - 02:40:40 10° NNW 02:43:27 25° NNE 02:46:13 10° E night (unlit)
22 Jan - 04:17:00 10° WNW 04:19:54 29° SW 04:22:46 10° SSE night (unlit)
22 Jan - 19:18:40 10° S 19:21:26 26° SE 19:24:13 10° ENE visible
22 Jan - 20:55:01 10° W 20:57:50 27° NNW 21:00:41 10° NNE visible
23 Jan - 01:48:40 10° NNW 01:50:48 16° NNE 01:52:56 10° ENE night (unlit)
23 Jan - 03:24:18 10° NW 03:27:33 64° SW 03:30:47 10° SE night (unlit)
23 Jan - 18:27:37 10° SSE 18:29:11 13° SE 18:30:44 10° E visible
23 Jan - 20:02:08 10° WSW 20:05:17 50° NW 20:08:29 10° NE visible
23 Jan - 21:41:56 10° NNW 21:42:23 10° NNW 21:42:51 10° NNW night (unlit)
24 Jan - 00:57:05 10° N 00:58:04 11° NNE 00:59:02 10° NE night (unlit)
24 Jan - 02:31:53 10° NW 02:35:06 58° NE 02:38:20 10° ESE night (unlit)
24 Jan - 04:10:08 10° WSW 04:11:10 11° SW 04:12:13 10° SW night (unlit)
24 Jan - 19:09:36 10° SW 19:12:49 76° SE 19:16:04 10° NE visible
24 Jan - 20:47:40 10° WNW 20:49:37 15° NNW 20:51:35 10° N visible
25 Jan - 01:39:37 10° NNW 01:42:33 30° NE 01:45:29 10° E night (unlit)
25 Jan - 03:16:16 10° WNW 03:18:55 23° SW 03:21:33 10° S night (unlit)
25 Jan - 18:17:28 10° SSW 18:20:26 33° SE 18:23:24 10° ENE visible
25 Jan - 19:54:16 10° W 19:56:55 23° NNW 19:59:36 10° NNE visible
